Year,Month,Day,Hour,Minute,Value (Times are PST for temperature in C)
2016,08,19,00,00,19.30
2016,08,19,00,01,19.30
2016,08,19,00,02,19.30
2016,08,19,00,03,19.30
2016,08,19,00,04,19.30
2016,08,19,00,05,19.30
2016,08,19,00,06,19.20
2016,08,19,00,07,19.20
2016,08,19,00,08,19.20
2016,08,19,00,09,19.10
2016,08,19,00,10,19.10
2016,08,19,00,11,19.10
2016,08,19,00,12,19.10
2016,08,19,00,13,19.00
2016,08,19,00,14,19.00
2016,08,19,00,15,19.00
2016,08,19,00,16,19.00
2016,08,19,00,17,19.10
2016,08,19,00,18,19.10
2016,08,19,00,19,19.10
2016,08,19,00,20,19.20
2016,08,19,00,21,19.20
2016,08,19,00,22,19.20
2016,08,19,00,23,19.30
2016,08,19,00,24,19.40
2016,08,19,00,25,19.50
2016,08,19,00,26,19.60
2016,08,19,00,27,19.60
2016,08,19,00,28,19.70
2016,08,19,00,29,19.70
2016,08,19,00,30,19.70
2016,08,19,00,31,19.80
2016,08,19,00,32,19.80
2016,08,19,00,33,19.80
2016,08,19,00,34,19.80
2016,08,19,00,35,19.90
2016,08,19,00,36,19.90
2016,08,19,00,37,19.90
2016,08,19,00,38,19.90
2016,08,19,00,39,19.90
2016,08,19,00,40,19.90
2016,08,19,00,41,19.90
2016,08,19,00,42,19.90
2016,08,19,00,43,19.90
2016,08,19,00,44,19.90
2016,08,19,00,45,19.90
2016,08,19,00,46,19.90
2016,08,19,00,47,19.90
2016,08,19,00,48,19.80
2016,08,19,00,49,19.80
2016,08,19,00,50,19.80
2016,08,19,00,51,19.80
2016,08,19,00,52,19.70
2016,08,19,00,53,19.70
2016,08,19,00,54,19.70
2016,08,19,00,55,19.60
2016,08,19,00,56,19.60
2016,08,19,00,57,19.60
2016,08,19,00,58,19.60
2016,08,19,00,59,19.50
2016,08,19,01,00,19.50
2016,08,19,01,01,19.50
2016,08,19,01,02,19.40
2016,08,19,01,03,19.40
2016,08,19,01,04,19.40
2016,08,19,01,05,19.40
2016,08,19,01,06,19.40
2016,08,19,01,07,19.40
2016,08,19,01,08,19.40
2016,08,19,01,09,19.40
2016,08,19,01,10,19.40
2016,08,19,01,11,19.40
2016,08,19,01,12,19.30
2016,08,19,01,13,19.30
2016,08,19,01,14,19.30
2016,08,19,01,15,19.30
2016,08,19,01,16,19.30
2016,08,19,01,17,19.30
2016,08,19,01,18,19.30
2016,08,19,01,19,19.30
2016,08,19,01,20,19.30
2016,08,19,01,21,19.30
2016,08,19,01,22,19.30
2016,08,19,01,23,19.30
2016,08,19,01,24,19.30
2016,08,19,01,25,19.30
2016,08,19,01,26,19.40
2016,08,19,01,27,19.40
2016,08,19,01,28,19.40
2016,08,19,01,29,19.40
2016,08,19,01,30,19.50
2016,08,19,01,31,19.50
2016,08,19,01,32,19.60
2016,08,19,01,33,19.60
2016,08,19,01,34,19.60
2016,08,19,01,35,19.60
2016,08,19,01,36,19.60
2016,08,19,01,37,19.60
2016,08,19,01,38,19.60
2016,08,19,01,39,19.60
2016,08,19,01,40,19.60
2016,08,19,01,41,19.60
2016,08,19,01,42,19.60
2016,08,19,01,43,19.60
2016,08,19,01,44,19.60
2016,08,19,01,45,19.50
2016,08,19,01,46,19.50
2016,08,19,01,47,19.50
2016,08,19,01,48,19.50
2016,08,19,01,49,19.50
2016,08,19,01,50,19.50
2016,08,19,01,51,19.50
2016,08,19,01,52,19.50
2016,08,19,01,53,19.50
2016,08,19,01,54,19.50
2016,08,19,01,55,19.60
2016,08,19,01,56,19.60
2016,08,19,01,57,19.60
2016,08,19,01,58,19.60
2016,08,19,01,59,19.70
2016,08,19,02,00,19.70
2016,08,19,02,01,19.70
2016,08,19,02,02,19.70
2016,08,19,02,03,19.70
2016,08,19,02,04,19.80
2016,08,19,02,05,19.80
2016,08,19,02,06,19.80
2016,08,19,02,07,19.90
2016,08,19,02,08,19.90
2016,08,19,02,09,19.90
2016,08,19,02,10,20.00
2016,08,19,02,11,20.00
2016,08,19,02,12,20.10
2016,08,19,02,13,20.10
2016,08,19,02,14,20.10
2016,08,19,02,15,20.10
2016,08,19,02,16,20.10
2016,08,19,02,17,20.10
2016,08,19,02,18,20.10
2016,08,19,02,19,20.00
2016,08,19,02,20,20.00
2016,08,19,02,21,19.90
2016,08,19,02,22,19.80
2016,08,19,02,23,19.70
2016,08,19,02,24,19.60
2016,08,19,02,25,19.50
2016,08,19,02,26,19.40
2016,08,19,02,27,19.30
2016,08,19,02,28,19.30
2016,08,19,02,29,19.20
2016,08,19,02,30,19.10
2016,08,19,02,31,19.00
2016,08,19,02,32,18.90
2016,08,19,02,33,18.90
2016,08,19,02,34,18.80
2016,08,19,02,35,18.80
2016,08,19,02,36,18.70
2016,08,19,02,37,18.70
2016,08,19,02,38,18.70
2016,08,19,02,39,18.60
2016,08,19,02,40,18.60
2016,08,19,02,41,18.50
2016,08,19,02,42,18.50
2016,08,19,02,43,18.50
2016,08,19,02,44,18.50
2016,08,19,02,45,18.50
2016,08,19,02,46,18.50
2016,08,19,02,47,18.50
2016,08,19,02,48,18.50
2016,08,19,02,49,18.40
2016,08,19,02,50,18.40
2016,08,19,02,51,18.40
2016,08,19,02,52,18.40
2016,08,19,02,53,18.50
2016,08,19,02,54,18.50
2016,08,19,02,55,18.60
2016,08,19,02,56,18.70
2016,08,19,02,57,18.80
2016,08,19,02,58,19.00
2016,08,19,02,59,19.20
2016,08,19,03,00,19.40
2016,08,19,03,01,19.60
2016,08,19,03,02,19.80
2016,08,19,03,03,20.00
2016,08,19,03,04,20.20
2016,08,19,03,05,20.40
2016,08,19,03,06,20.60
2016,08,19,03,07,20.80
2016,08,19,03,08,21.00
2016,08,19,03,09,21.20
2016,08,19,03,10,21.30
2016,08,19,03,11,21.50
2016,08,19,03,12,21.70
2016,08,19,03,13,21.80
2016,08,19,03,14,21.90
2016,08,19,03,15,22.00
2016,08,19,03,16,22.10
2016,08,19,03,17,22.20
2016,08,19,03,18,22.30
2016,08,19,03,19,22.30
2016,08,19,03,20,22.40
2016,08,19,03,21,22.50
2016,08,19,03,22,22.60
2016,08,19,03,23,22.60
2016,08,19,03,24,22.70
2016,08,19,03,25,22.70
2016,08,19,03,26,22.80
2016,08,19,03,27,22.80
2016,08,19,03,28,22.80
2016,08,19,03,29,22.80
2016,08,19,03,30,22.90
2016,08,19,03,31,22.90
2016,08,19,03,32,22.90
2016,08,19,03,33,22.90
2016,08,19,03,34,22.90
2016,08,19,03,35,22.80
2016,08,19,03,36,22.80
2016,08,19,03,37,22.80
2016,08,19,03,38,22.80
2016,08,19,03,39,22.70
2016,08,19,03,40,22.70
2016,08,19,03,41,22.70
2016,08,19,03,42,22.70
2016,08,19,03,43,22.70
2016,08,19,03,44,22.60
2016,08,19,03,45,22.60
2016,08,19,03,46,22.50
2016,08,19,03,47,22.50
2016,08,19,03,48,22.40
2016,08,19,03,49,22.40
2016,08,19,03,50,22.30
2016,08,19,03,51,22.30
2016,08,19,03,52,22.30
2016,08,19,03,53,22.20
2016,08,19,03,54,22.20
2016,08,19,03,55,22.20
2016,08,19,03,56,22.20
2016,08,19,03,57,22.10
2016,08,19,03,58,22.10
2016,08,19,03,59,22.10
2016,08,19,04,00,22.10
2016,08,19,04,01,22.10
2016,08,19,04,02,22.10
2016,08,19,04,03,22.00
2016,08,19,04,04,22.00
2016,08,19,04,05,21.90
2016,08,19,04,06,21.90
2016,08,19,04,07,21.90
2016,08,19,04,08,21.80
2016,08,19,04,09,21.80
2016,08,19,04,10,21.80
2016,08,19,04,11,21.80
2016,08,19,04,12,21.80
2016,08,19,04,13,21.80
2016,08,19,04,14,21.80
2016,08,19,04,15,21.80
2016,08,19,04,16,21.90
2016,08,19,04,17,21.90
2016,08,19,04,18,22.00
2016,08,19,04,19,22.10
2016,08,19,04,20,22.10
2016,08,19,04,21,22.10
2016,08,19,04,22,22.00
2016,08,19,04,23,21.90
2016,08,19,04,24,21.80
2016,08,19,04,25,21.70
2016,08,19,04,26,21.60
2016,08,19,04,27,21.50
2016,08,19,04,28,21.40
2016,08,19,04,29,21.30
2016,08,19,04,30,21.20
2016,08,19,04,31,21.10
2016,08,19,04,32,21.00
2016,08,19,04,33,20.90
2016,08,19,04,34,20.80
2016,08,19,04,35,20.70
2016,08,19,04,36,20.70
2016,08,19,04,37,20.60
2016,08,19,04,38,20.60
2016,08,19,04,39,20.60
2016,08,19,04,40,20.60
2016,08,19,04,41,20.50
2016,08,19,04,42,20.50
2016,08,19,04,43,20.50
2016,08,19,04,44,20.50
2016,08,19,04,45,20.40
2016,08,19,04,46,20.40
2016,08,19,04,47,20.40
2016,08,19,04,48,20.40
2016,08,19,04,49,20.30
2016,08,19,04,50,20.30
2016,08,19,04,51,20.20
2016,08,19,04,52,20.20
2016,08,19,04,53,20.20
2016,08,19,04,54,20.10
2016,08,19,04,55,20.10
2016,08,19,04,56,20.10
2016,08,19,04,57,20.00
2016,08,19,04,58,20.00
2016,08,19,04,59,19.90
2016,08,19,05,00,19.90
2016,08,19,05,01,19.90
2016,08,19,05,02,19.90
2016,08,19,05,03,19.90
2016,08,19,05,04,19.90
2016,08,19,05,05,19.80
2016,08,19,05,06,19.80
2016,08,19,05,07,19.80
2016,08,19,05,08,19.70
2016,08,19,05,09,19.70
2016,08,19,05,10,19.70
2016,08,19,05,11,19.60
2016,08,19,05,12,19.60
2016,08,19,05,13,19.70
2016,08,19,05,14,19.80
2016,08,19,05,15,19.90
2016,08,19,05,16,20.10
2016,08,19,05,17,20.20
2016,08,19,05,18,20.40
2016,08,19,05,19,20.50
2016,08,19,05,20,20.70
2016,08,19,05,21,20.90
2016,08,19,05,22,21.00
2016,08,19,05,23,21.10
2016,08,19,05,24,21.20
2016,08,19,05,25,21.30
2016,08,19,05,26,21.30
2016,08,19,05,27,21.40
2016,08,19,05,28,21.40
2016,08,19,05,29,21.40
2016,08,19,05,30,21.50
2016,08,19,05,31,21.50
2016,08,19,05,32,21.50
2016,08,19,05,33,21.50
2016,08,19,05,34,21.50
2016,08,19,05,35,21.50
2016,08,19,05,36,21.50
2016,08,19,05,37,21.50
2016,08,19,05,38,21.50
2016,08,19,05,39,21.50
2016,08,19,05,40,21.60
2016,08,19,05,41,21.60
2016,08,19,05,42,21.60
2016,08,19,05,43,21.60
2016,08,19,05,44,21.60
2016,08,19,05,45,21.50
2016,08,19,05,46,21.50
2016,08,19,05,47,21.50
2016,08,19,05,48,21.50
2016,08,19,05,49,21.50
2016,08,19,05,50,21.40
2016,08,19,05,51,21.40
2016,08,19,05,52,21.40
2016,08,19,05,53,21.30
2016,08,19,05,54,21.30
2016,08,19,05,55,21.30
2016,08,19,05,56,21.20
2016,08,19,05,57,21.20
2016,08,19,05,58,21.10
2016,08,19,05,59,21.00
2016,08,19,06,00,21.00
2016,08,19,06,01,20.90
2016,08,19,06,02,20.90
2016,08,19,06,03,20.80
2016,08,19,06,04,20.80
2016,08,19,06,05,20.80
2016,08,19,06,06,20.80
2016,08,19,06,07,20.70
2016,08,19,06,08,20.50
2016,08,19,06,09,20.40
2016,08,19,06,10,20.30
2016,08,19,06,11,20.10
2016,08,19,06,12,19.90
2016,08,19,06,13,19.80
2016,08,19,06,14,19.60
2016,08,19,06,15,19.50
2016,08,19,06,16,19.30
2016,08,19,06,17,19.20
2016,08,19,06,18,19.10
2016,08,19,06,19,19.00
2016,08,19,06,20,18.90
2016,08,19,06,21,18.80
2016,08,19,06,22,18.80
2016,08,19,06,23,18.80
2016,08,19,06,24,18.70
2016,08,19,06,25,18.70
2016,08,19,06,26,18.70
2016,08,19,06,27,18.60
2016,08,19,06,28,18.60
2016,08,19,06,29,18.60
2016,08,19,06,30,18.60
2016,08,19,06,31,18.60
2016,08,19,06,32,18.60
2016,08,19,06,33,18.60
2016,08,19,06,34,18.60
2016,08,19,06,35,18.60
2016,08,19,06,36,18.70
2016,08,19,06,37,18.70
2016,08,19,06,38,18.70
2016,08,19,06,39,18.70
2016,08,19,06,40,18.70
2016,08,19,06,41,18.70
2016,08,19,06,42,18.60
2016,08,19,06,43,18.60
2016,08,19,06,44,18.60
2016,08,19,06,45,18.60
2016,08,19,06,46,18.60
2016,08,19,06,47,18.60
2016,08,19,06,48,18.60
2016,08,19,06,49,18.60
2016,08,19,06,50,18.50
2016,08,19,06,51,18.50
2016,08,19,06,52,18.50
2016,08,19,06,53,18.50
2016,08,19,06,54,18.50
2016,08,19,06,55,18.60
2016,08,19,06,56,18.60
2016,08,19,06,57,18.70
2016,08,19,06,58,18.80
2016,08,19,06,59,18.90
2016,08,19,07,00,19.00
2016,08,19,07,01,19.10
2016,08,19,07,02,19.20
2016,08,19,07,03,19.30
2016,08,19,07,04,19.50
2016,08,19,07,05,19.60
2016,08,19,07,06,19.70
2016,08,19,07,07,19.80
2016,08,19,07,08,19.80
2016,08,19,07,09,19.80
2016,08,19,07,10,19.80
2016,08,19,07,11,19.80
2016,08,19,07,12,19.80
2016,08,19,07,13,19.90
2016,08,19,07,14,19.90
2016,08,19,07,15,20.00
2016,08,19,07,16,20.10
2016,08,19,07,17,20.10
2016,08,19,07,18,20.20
2016,08,19,07,19,20.20
2016,08,19,07,20,20.20
2016,08,19,07,21,20.20
2016,08,19,07,22,20.20
2016,08,19,07,23,20.20
2016,08,19,07,24,20.20
2016,08,19,07,25,20.30
2016,08,19,07,26,20.30
2016,08,19,07,27,20.30
2016,08,19,07,28,20.40
2016,08,19,07,29,20.40
2016,08,19,07,30,20.40
2016,08,19,07,31,20.40
2016,08,19,07,32,20.40
2016,08,19,07,33,20.50
2016,08,19,07,34,20.50
2016,08,19,07,35,20.50
2016,08,19,07,36,20.50
2016,08,19,07,37,20.50
2016,08,19,07,38,20.60
2016,08,19,07,39,20.60
2016,08,19,07,40,20.60
2016,08,19,07,41,20.60
2016,08,19,07,42,20.70
2016,08,19,07,43,20.70
2016,08,19,07,44,20.70
2016,08,19,07,45,20.80
2016,08,19,07,46,20.90
2016,08,19,07,47,20.90
2016,08,19,07,48,21.00
2016,08,19,07,49,21.00
2016,08,19,07,50,21.10
2016,08,19,07,51,21.20
2016,08,19,07,52,21.20
2016,08,19,07,53,21.20
2016,08,19,07,54,21.30
2016,08,19,07,55,21.30
2016,08,19,07,56,21.30
2016,08,19,07,57,21.40
2016,08,19,07,58,21.50
2016,08,19,07,59,21.50
2016,08,19,08,00,21.60
2016,08,19,08,01,21.70
2016,08,19,08,02,21.70
2016,08,19,08,03,21.80
2016,08,19,08,04,21.80
2016,08,19,08,05,21.90
2016,08,19,08,06,22.00
2016,08,19,08,07,22.00
2016,08,19,08,08,22.10
2016,08,19,08,09,22.20
2016,08,19,08,10,22.30
2016,08,19,08,11,22.30
2016,08,19,08,12,22.40
2016,08,19,08,13,22.50
2016,08,19,08,14,22.50
2016,08,19,08,15,22.60
2016,08,19,08,16,22.60
2016,08,19,08,17,22.70
2016,08,19,08,18,22.80
2016,08,19,08,19,22.80
2016,08,19,08,20,22.90
2016,08,19,08,21,23.00
2016,08,19,08,22,23.10
2016,08,19,08,23,23.20
2016,08,19,08,24,23.20
2016,08,19,08,25,23.30
2016,08,19,08,26,23.40
2016,08,19,08,27,23.40
2016,08,19,08,28,23.50
2016,08,19,08,29,23.60
2016,08,19,08,30,23.60
2016,08,19,08,31,23.70
2016,08,19,08,32,23.90
2016,08,19,08,33,24.00
2016,08,19,08,34,24.10
2016,08,19,08,35,24.20
2016,08,19,08,36,24.30
2016,08,19,08,37,24.40
2016,08,19,08,38,24.40
2016,08,19,08,39,24.50
2016,08,19,08,40,24.60
2016,08,19,08,41,24.70
2016,08,19,08,42,24.80
2016,08,19,08,43,24.80
2016,08,19,08,44,24.80
2016,08,19,08,45,24.70
2016,08,19,08,46,24.60
2016,08,19,08,47,24.50
2016,08,19,08,48,24.40
2016,08,19,08,49,24.30
2016,08,19,08,50,24.20
2016,08,19,08,51,24.20
2016,08,19,08,52,24.20
2016,08,19,08,53,24.20
2016,08,19,08,54,24.20
2016,08,19,08,55,24.20
2016,08,19,08,56,24.20
2016,08,19,08,57,24.20
2016,08,19,08,58,24.30
2016,08,19,08,59,24.30
2016,08,19,09,00,24.40
2016,08,19,09,01,24.50
2016,08,19,09,02,24.60
2016,08,19,09,03,24.70
2016,08,19,09,04,24.90
2016,08,19,09,05,25.10
2016,08,19,09,06,25.30
2016,08,19,09,07,25.40
2016,08,19,09,08,25.60
2016,08,19,09,09,25.70
2016,08,19,09,10,25.80
2016,08,19,09,11,25.80
2016,08,19,09,12,25.90
2016,08,19,09,13,26.00
2016,08,19,09,14,26.10
2016,08,19,09,15,26.10
2016,08,19,09,16,26.10
2016,08,19,09,17,26.20
2016,08,19,09,18,26.20
2016,08,19,09,19,26.20
2016,08,19,09,20,26.20
2016,08,19,09,21,26.20
2016,08,19,09,22,26.30
2016,08,19,09,23,26.30
2016,08,19,09,24,26.30
2016,08,19,09,25,26.30
2016,08,19,09,26,26.30
2016,08,19,09,27,26.30
2016,08,19,09,28,26.40
2016,08,19,09,29,26.40
2016,08,19,09,30,26.40
2016,08,19,09,31,26.40
2016,08,19,09,32,26.50
2016,08,19,09,33,26.50
2016,08,19,09,34,26.60
2016,08,19,09,35,26.60
2016,08,19,09,36,26.60
2016,08,19,09,37,26.60
2016,08,19,09,38,26.60
2016,08,19,09,39,26.70
2016,08,19,09,40,26.70
2016,08,19,09,41,26.70
2016,08,19,09,42,26.70
2016,08,19,09,43,26.80
2016,08,19,09,44,26.80
2016,08,19,09,45,26.80
2016,08,19,09,46,26.80
2016,08,19,09,47,26.90
2016,08,19,09,48,26.90
2016,08,19,09,49,26.90
2016,08,19,09,50,27.00
2016,08,19,09,51,27.00
2016,08,19,09,52,27.00
2016,08,19,09,53,27.10
2016,08,19,09,54,27.10
2016,08,19,09,55,27.10
2016,08,19,09,56,27.10
2016,08,19,09,57,27.10
2016,08,19,09,58,27.10
2016,08,19,09,59,27.20
2016,08,19,10,00,27.20
2016,08,19,10,01,27.20
2016,08,19,10,02,27.20
2016,08,19,10,03,27.20
2016,08,19,10,04,27.20
2016,08,19,10,05,27.20
2016,08,19,10,06,27.20
2016,08,19,10,07,27.30
2016,08,19,10,08,27.30
2016,08,19,10,09,27.30
2016,08,19,10,10,27.30
2016,08,19,10,11,27.30
2016,08,19,10,12,27.30
2016,08,19,10,13,27.30
2016,08,19,10,14,27.30
2016,08,19,10,15,27.30
2016,08,19,10,16,27.30
2016,08,19,10,17,27.40
2016,08,19,10,18,27.40
2016,08,19,10,19,27.40
2016,08,19,10,20,27.40
2016,08,19,10,21,27.40
2016,08,19,10,22,27.40
2016,08,19,10,23,27.40
2016,08,19,10,24,27.40
2016,08,19,10,25,27.40
2016,08,19,10,26,27.40
2016,08,19,10,27,27.40
2016,08,19,10,28,27.40
2016,08,19,10,29,27.40
2016,08,19,10,30,27.40
2016,08,19,10,31,27.50
2016,08,19,10,32,27.50
2016,08,19,10,33,27.60
2016,08,19,10,34,27.70
2016,08,19,10,35,27.70
2016,08,19,10,36,27.70
2016,08,19,10,37,27.80
2016,08,19,10,38,27.80
2016,08,19,10,39,27.80
2016,08,19,10,40,27.80
2016,08,19,10,41,27.80
2016,08,19,10,42,27.80
2016,08,19,10,43,27.90
2016,08,19,10,44,28.00
2016,08,19,10,45,28.00
2016,08,19,10,46,28.00
2016,08,19,10,47,28.00
2016,08,19,10,48,28.00
2016,08,19,10,49,28.00
2016,08,19,10,50,28.00
2016,08,19,10,51,28.10
2016,08,19,10,52,28.10
2016,08,19,10,53,28.10
2016,08,19,10,54,28.10
2016,08,19,10,55,28.10
2016,08,19,10,56,28.10
2016,08,19,10,57,28.10
2016,08,19,10,58,28.20
2016,08,19,10,59,28.20
2016,08,19,11,00,28.30
2016,08,19,11,01,28.30
2016,08,19,11,02,28.30
2016,08,19,11,03,28.30
2016,08,19,11,04,28.40
2016,08,19,11,05,28.40
2016,08,19,11,06,28.30
2016,08,19,11,07,28.30
2016,08,19,11,08,28.30
2016,08,19,11,09,28.30
2016,08,19,11,10,28.30
2016,08,19,11,11,28.30
2016,08,19,11,12,28.20
2016,08,19,11,13,28.20
2016,08,19,11,14,28.20
2016,08,19,11,15,28.20
2016,08,19,11,16,28.20
2016,08,19,11,17,28.30
2016,08,19,11,18,28.30
2016,08,19,11,19,28.40
2016,08,19,11,20,28.50
2016,08,19,11,21,28.50
2016,08,19,11,22,28.50
2016,08,19,11,23,28.60
2016,08,19,11,24,28.60
2016,08,19,11,25,28.70
2016,08,19,11,26,28.70
2016,08,19,11,27,28.70
2016,08,19,11,28,28.70
2016,08,19,11,29,28.80
2016,08,19,11,30,28.80
2016,08,19,11,31,28.80
2016,08,19,11,32,28.80
2016,08,19,11,33,28.80
2016,08,19,11,34,28.80
2016,08,19,11,35,28.80
2016,08,19,11,36,28.80
2016,08,19,11,37,28.90
2016,08,19,11,38,28.90
2016,08,19,11,39,29.00
2016,08,19,11,40,29.00
2016,08,19,11,41,29.10
2016,08,19,11,42,29.10
2016,08,19,11,43,29.10
2016,08,19,11,44,29.10
2016,08,19,11,45,29.10
2016,08,19,11,46,29.10
2016,08,19,11,47,29.10
2016,08,19,11,48,29.10
2016,08,19,11,49,29.10
2016,08,19,11,50,29.00
2016,08,19,11,51,29.00
2016,08,19,11,52,29.00
2016,08,19,11,53,29.00
2016,08,19,11,54,29.00
2016,08,19,11,55,29.00
2016,08,19,11,56,28.90
2016,08,19,11,57,28.90
2016,08,19,11,58,29.00
2016,08,19,11,59,29.00
2016,08,19,12,00,29.00
2016,08,19,12,01,29.10
2016,08,19,12,02,29.10
2016,08,19,12,03,29.10
2016,08,19,12,04,29.10
2016,08,19,12,05,29.10
2016,08,19,12,06,29.10
2016,08,19,12,07,29.10
2016,08,19,12,08,29.10
2016,08,19,12,09,29.10
2016,08,19,12,10,29.20
2016,08,19,12,11,29.20
2016,08,19,12,12,29.20
2016,08,19,12,13,29.20
2016,08,19,12,14,29.20
2016,08,19,12,15,29.30
2016,08,19,12,16,29.20
2016,08,19,12,17,29.20
2016,08,19,12,18,29.20
2016,08,19,12,19,29.10
2016,08,19,12,20,29.10
2016,08,19,12,21,29.00
2016,08,19,12,22,29.00
2016,08,19,12,23,28.90
2016,08,19,12,24,28.90
2016,08,19,12,25,28.90
2016,08,19,12,26,28.90
2016,08,19,12,27,28.90
2016,08,19,12,28,28.90
2016,08,19,12,29,29.00
2016,08,19,12,30,29.00
2016,08,19,12,31,29.00
2016,08,19,12,32,29.10
2016,08,19,12,33,29.10
2016,08,19,12,34,29.20
2016,08,19,12,35,29.20
2016,08,19,12,36,29.30
2016,08,19,12,37,29.40
2016,08,19,12,38,29.50
2016,08,19,12,39,29.50
2016,08,19,12,40,29.40
2016,08,19,12,41,29.30
2016,08,19,12,42,29.30
2016,08,19,12,43,29.40
2016,08,19,12,44,29.40
2016,08,19,12,45,29.40
2016,08,19,12,46,29.40
2016,08,19,12,47,29.30
2016,08,19,12,48,29.30
2016,08,19,12,49,29.30
2016,08,19,12,50,29.30
2016,08,19,12,51,29.30
2016,08,19,12,52,29.30
2016,08,19,12,53,29.30
2016,08,19,12,54,29.30
2016,08,19,12,55,29.40
2016,08,19,12,56,29.50
2016,08,19,12,57,29.50
2016,08,19,12,58,29.60
2016,08,19,12,59,29.60
2016,08,19,13,00,29.70
2016,08,19,13,01,29.70
2016,08,19,13,02,29.70
2016,08,19,13,03,29.70
2016,08,19,13,04,29.70
2016,08,19,13,05,29.70
2016,08,19,13,06,29.70
2016,08,19,13,07,29.80
2016,08,19,13,08,29.80
2016,08,19,13,09,29.70
2016,08,19,13,10,29.70
2016,08,19,13,11,29.70
2016,08,19,13,12,29.70
2016,08,19,13,13,29.70
2016,08,19,13,14,29.70
2016,08,19,13,15,29.70
2016,08,19,13,16,29.70
2016,08,19,13,17,29.70
2016,08,19,13,18,29.70
2016,08,19,13,19,29.70
2016,08,19,13,20,29.70
2016,08,19,13,21,29.80
2016,08,19,13,22,29.80
2016,08,19,13,23,29.80
2016,08,19,13,24,29.80
2016,08,19,13,25,29.80
2016,08,19,13,26,29.80
2016,08,19,13,27,29.80
2016,08,19,13,28,29.80
2016,08,19,13,29,29.80
2016,08,19,13,30,29.90
2016,08,19,13,31,30.00
2016,08,19,13,32,30.10
2016,08,19,13,33,30.10
2016,08,19,13,34,30.00
2016,08,19,13,35,30.00
2016,08,19,13,36,30.00
2016,08,19,13,37,30.10
2016,08,19,13,38,30.20
2016,08,19,13,39,30.20
2016,08,19,13,40,30.20
2016,08,19,13,41,30.20
2016,08,19,13,42,30.10
2016,08,19,13,43,30.10
2016,08,19,13,44,30.10
2016,08,19,13,45,30.10
2016,08,19,13,46,30.10
2016,08,19,13,47,30.10
2016,08,19,13,48,30.20
2016,08,19,13,49,30.20
2016,08,19,13,50,30.20
2016,08,19,13,51,30.30
2016,08,19,13,52,30.30
2016,08,19,13,53,30.30
2016,08,19,13,54,30.40
2016,08,19,13,55,30.40
2016,08,19,13,56,30.50
2016,08,19,13,57,30.50
2016,08,19,13,58,30.50
2016,08,19,13,59,30.60
2016,08,19,14,00,30.60
2016,08,19,14,01,30.60
2016,08,19,14,02,30.60
2016,08,19,14,03,30.60
2016,08,19,14,04,30.60
2016,08,19,14,05,30.70
2016,08,19,14,06,30.70
2016,08,19,14,07,30.70
2016,08,19,14,08,30.70
2016,08,19,14,09,30.80
2016,08,19,14,10,30.80
2016,08,19,14,11,30.80
2016,08,19,14,12,30.90
2016,08,19,14,13,30.90
2016,08,19,14,14,31.00
2016,08,19,14,15,31.00
2016,08,19,14,16,31.10
2016,08,19,14,17,31.20
2016,08,19,14,18,31.30
2016,08,19,14,19,31.40
2016,08,19,14,20,31.40
2016,08,19,14,21,31.50
2016,08,19,14,22,31.60
2016,08,19,14,23,31.60
2016,08,19,14,24,31.60
2016,08,19,14,25,31.60
2016,08,19,14,26,31.60
2016,08,19,14,27,31.50
2016,08,19,14,28,31.60
2016,08,19,14,29,31.60
2016,08,19,14,30,31.60
2016,08,19,14,31,31.60
2016,08,19,14,32,31.50
2016,08,19,14,33,31.50
2016,08,19,14,34,31.40
2016,08,19,14,35,31.30
2016,08,19,14,36,31.30
2016,08,19,14,37,31.30
2016,08,19,14,38,31.30
2016,08,19,14,39,31.30
2016,08,19,14,40,31.30
2016,08,19,14,41,31.40
2016,08,19,14,42,31.40
2016,08,19,14,43,31.50
2016,08,19,14,44,31.50
2016,08,19,14,45,31.50
2016,08,19,14,46,31.50
2016,08,19,14,47,31.50
2016,08,19,14,48,31.40
2016,08,19,14,49,31.40
2016,08,19,14,50,31.40
2016,08,19,14,51,31.40
2016,08,19,14,52,31.50
2016,08,19,14,53,31.50
2016,08,19,14,54,31.60
2016,08,19,14,55,31.60
2016,08,19,14,56,31.60
2016,08,19,14,57,31.60
2016,08,19,14,58,31.60
2016,08,19,14,59,31.60
2016,08,19,15,00,31.60
2016,08,19,15,01,31.70
2016,08,19,15,02,31.80
2016,08,19,15,03,31.80
2016,08,19,15,04,31.90
2016,08,19,15,05,32.00
2016,08,19,15,06,32.10
2016,08,19,15,07,32.10
2016,08,19,15,08,32.20
2016,08,19,15,09,32.20
2016,08,19,15,10,32.30
2016,08,19,15,11,32.30
2016,08,19,15,12,32.30
2016,08,19,15,13,32.30
2016,08,19,15,14,32.40
2016,08,19,15,15,32.50
2016,08,19,15,16,32.50
2016,08,19,15,17,32.60
2016,08,19,15,18,32.60
2016,08,19,15,19,32.70
2016,08,19,15,20,32.80
2016,08,19,15,21,32.80
2016,08,19,15,22,32.80
2016,08,19,15,23,32.80
2016,08,19,15,24,32.90
2016,08,19,15,25,32.90
2016,08,19,15,26,32.90
2016,08,19,15,27,32.80
2016,08,19,15,28,32.80
2016,08,19,15,29,32.70
2016,08,19,15,30,32.70
2016,08,19,15,31,32.70
2016,08,19,15,32,32.70
2016,08,19,15,33,32.70
2016,08,19,15,34,32.80
2016,08,19,15,35,32.80
2016,08,19,15,36,32.90
2016,08,19,15,37,32.80
2016,08,19,15,38,32.50
2016,08,19,15,39,32.10
2016,08,19,15,40,31.60
2016,08,19,15,41,31.10
2016,08,19,15,42,30.70
2016,08,19,15,43,30.40
2016,08,19,15,44,30.20
2016,08,19,15,45,30.20
2016,08,19,15,46,30.20
2016,08,19,15,47,30.30
2016,08,19,15,48,30.30
2016,08,19,15,49,30.30
2016,08,19,15,50,30.30
2016,08,19,15,51,30.30
2016,08,19,15,52,30.40
2016,08,19,15,53,30.50
2016,08,19,15,54,30.60
2016,08,19,15,55,30.80
2016,08,19,15,56,30.90
2016,08,19,15,57,30.90
2016,08,19,15,58,30.90
2016,08,19,15,59,30.90
2016,08,19,16,00,31.00
2016,08,19,16,01,31.00
2016,08,19,16,02,31.00
2016,08,19,16,03,30.90
2016,08,19,16,04,30.80
2016,08,19,16,05,30.80
2016,08,19,16,06,30.80
2016,08,19,16,07,30.80
2016,08,19,16,08,30.80
2016,08,19,16,09,30.80
2016,08,19,16,10,30.90
2016,08,19,16,11,30.90
2016,08,19,16,12,31.00
2016,08,19,16,13,31.20
2016,08,19,16,14,31.20
2016,08,19,16,15,31.30
2016,08,19,16,16,31.30
2016,08,19,16,17,31.40
2016,08,19,16,18,31.50
2016,08,19,16,19,31.60
2016,08,19,16,20,31.60
2016,08,19,16,21,31.70
2016,08,19,16,22,31.80
2016,08,19,16,23,31.90
2016,08,19,16,24,32.00
2016,08,19,16,25,32.10
2016,08,19,16,26,32.20
2016,08,19,16,27,32.20
2016,08,19,16,28,32.30
2016,08,19,16,29,32.30
2016,08,19,16,30,32.30
2016,08,19,16,31,32.30
2016,08,19,16,32,32.30
2016,08,19,16,33,32.30
2016,08,19,16,34,32.30
2016,08,19,16,35,32.40
2016,08,19,16,36,32.40
2016,08,19,16,37,32.50
2016,08,19,16,38,32.60
2016,08,19,16,39,32.60
2016,08,19,16,40,32.40
2016,08,19,16,41,31.80
2016,08,19,16,42,31.00
2016,08,19,16,43,30.10
2016,08,19,16,44,29.40
2016,08,19,16,45,28.70
2016,08,19,16,46,28.20
2016,08,19,16,47,27.90
2016,08,19,16,48,27.70
2016,08,19,16,49,27.60
2016,08,19,16,50,27.70
2016,08,19,16,51,27.70
2016,08,19,16,52,27.70
2016,08,19,16,53,27.60
2016,08,19,16,54,27.50
2016,08,19,16,55,27.40
2016,08,19,16,56,27.30
2016,08,19,16,57,27.30
2016,08,19,16,58,27.20
2016,08,19,16,59,27.20
2016,08,19,17,00,27.30
2016,08,19,17,01,27.40
2016,08,19,17,02,27.60
2016,08,19,17,03,27.70
2016,08,19,17,04,27.80
2016,08,19,17,05,27.80
2016,08,19,17,06,27.80
2016,08,19,17,07,27.90
2016,08,19,17,08,28.00
2016,08,19,17,09,28.10
2016,08,19,17,10,28.30
2016,08,19,17,11,28.40
2016,08,19,17,12,28.50
2016,08,19,17,13,28.50
2016,08,19,17,14,28.60
2016,08,19,17,15,28.70
2016,08,19,17,16,28.70
2016,08,19,17,17,28.80
2016,08,19,17,18,28.80
2016,08,19,17,19,28.80